| time (UTC) | temp F | wind direction | speed knots | gust knots | rain 1hr in | rain 24hr in | rain mn in | humidity % | barometer mb |
| 20260508065004 | 46 | 207 | 0.9 | 2.6 | 0.02 | 0.05 | 0.02 | 97 | 1008.7 |
| 20260508063005 | 46 | 186 | 0.0 | 0.9 | 0.01 | 0.04 | 0.01 | 97 | 1008.5 |
| 20260508061004 | 47 | 20 | 0.9 | 2.6 | 0.00 | 0.03 | 0.00 | 97 | 1008.2 |
| 20260508055005 | 47 | 167 | 1.7 | 4.3 | 0.00 | 0.03 | 0.00 | 96 | 1008.4 |
| 20260508053005 | 46 | 59 | 0.0 | 0.0 | 0.00 | 0.03 | 0.00 | 96 | 1008.1 |
| 20260508052005 | 46 | 59 | 0.0 | 0.0 | 0.00 | 0.03 | 0.00 | 96 | 1008.1 |
| 20260508051004 | 46 | 59 | 0.0 | 0.0 | 0.00 | 0.03 | 0.00 | 96 | 1008.0 |
| 20260508050005 | 46 | 59 | 0.0 | 0.0 | 0.00 | 0.03 | 0.00 | 96 | 1008.0 |
| 20260508045005 | 46 | 59 | 0.0 | 0.0 | 0.00 | 0.03 | 0.00 | 95 | 1008.2 |
| 20260508043004 | 47 | 59 | 0.0 | 0.0 | 0.00 | 0.03 | 0.00 | 95 | 1008.1 |
| 20260508042004 | 47 | 59 | 0.0 | 0.9 | 0.00 | 0.03 | 0.00 | 95 | 1008.1 |
| 20260508040004 | 47 | 59 | 0.9 | 2.6 | 0.00 | 0.03 | 0.00 | 95 | 1008.2 |
| 20260508035005 | 47 | 59 | 0.0 | 0.9 | 0.00 | 0.03 | 0.00 | 95 | 1008.3 |
| 20260508034006 | 48 | 59 | 0.0 | 0.9 | 0.00 | 0.03 | 0.00 | 95 | 1008.4 |
| 20260508033005 | 48 | 59 | 0.0 | 1.7 | 0.00 | 0.03 | 0.00 | 95 | 1008.5 |
| 20260508032004 | 48 | 59 | 0.0 | 1.7 | 0.00 | 0.03 | 0.00 | 95 | 1008.6 |
| 20260508031004 | 48 | 59 | 0.9 | 1.7 | 0.00 | 0.03 | 0.00 | 95 | 1008.5 |
| 20260508030004 | 49 | 59 | 0.0 | 0.0 | 0.00 | 0.03 | 0.00 | 95 | 1008.7 |
| 20260508025005 | 49 | 59 | 0.0 | 0.0 | 0.00 | 0.03 | 0.00 | 95 | 1008.7 |
| 20260508024004 | 49 | 59 | 0.9 | 2.6 | 0.00 | 0.03 | 0.00 | 95 | 1008.8 |
| 20260508023005 | 49 | 59 | 0.0 | 2.6 | 0.00 | 0.03 | 0.00 | 95 | 1009.0 |
| 20260508022004 | 49 | 98 | 1.7 | 2.6 | 0.00 | 0.03 | 0.00 | 96 | 1009.0 |
| 20260508021005 | 49 | 97 | 0.0 | 0.0 | 0.00 | 0.03 | 0.00 | 96 | 1009.2 |
| 20260508020005 | 49 | 97 | 0.0 | 0.9 | 0.00 | 0.03 | 0.00 | 96 | 1009.3 |
| 20260508015005 | 49 | 97 | 0.0 | 1.7 | 0.00 | 0.03 | 0.00 | 96 | 1009.4 |
| 20260508014004 | 49 | 97 | 0.9 | 6.1 | 0.00 | 0.03 | 0.00 | 96 | 1009.5 |
| 20260508011005 | 48 | 215 | 0.9 | 1.7 | 0.00 | 0.03 | 0.00 | 96 | 1010.4 |
| 20260508010004 | 48 | 221 | 1.7 | 8.7 | 0.00 | 0.03 | 0.00 | 96 | 1010.5 |
| 20260508004004 | 48 | 228 | 6.1 | 8.7 | 0.00 | 0.03 | 0.00 | 95 | 1010.6 |
| 20260508002005 | 49 | 171 | 0.0 | 0.0 | 0.00 | 0.03 | 0.00 | 95 | 1010.2 |
| 20260508001005 | 49 | 171 | 0.0 | 1.7 | 0.00 | 0.03 | 0.00 | 94 | 1010.3 |
| 20260508000005 | 49 | 171 | 0.0 | 0.9 | 0.00 | 0.03 | 0.00 | 94 | 1010.2 |
| 20260507235005 | 49 | 171 | 0.0 | 1.7 | 0.00 | 0.03 | 0.00 | 94 | 1010.3 |
| 20260507231004 | 50 | 184 | 0.0 | 1.7 | 0.00 | 0.03 | 0.00 | 93 | 1010.4 |
| 20260507230005 | 50 | 212 | 0.0 | 0.9 | 0.00 | 0.03 | 0.00 | 93 | 1010.5 |
| 20260507225004 | 50 | 212 | 0.0 | 2.6 | 0.00 | 0.03 | 0.00 | 92 | 1010.8 |
| 20260507224005 | 51 | 207 | 0.9 | 2.6 | 0.00 | 0.03 | 0.00 | 91 | 1010.8 |
| 20260507223005 | 51 | 51 | 0.9 | 2.6 | 0.00 | 0.03 | 0.00 | 90 | 1010.7 |
| 20260507222005 | 51 | 65 | 0.9 | 2.6 | 0.00 | 0.03 | 0.00 | 90 | 1010.8 |
| 20260507220005 | 51 | 198 | 0.0 | 0.9 | 0.01 | 0.03 | 0.00 | 91 | 1011.0 |
| 20260507215004 | 51 | 198 | 0.0 | 0.0 | 0.01 | 0.03 | 0.03 | 91 | 1010.9 |
| 20260507214005 | 51 | 198 | 0.0 | 1.7 | 0.01 | 0.03 | 0.03 | 91 | 1010.8 |
| 20260507213005 | 51 | 198 | 1.7 | 4.3 | 0.01 | 0.03 | 0.03 | 89 | 1011.0 |
| 20260507212004 | 52 | 58 | 3.5 | 6.1 | 0.01 | 0.03 | 0.03 | 88 | 1010.5 |
| 20260507211004 | 52 | 302 | 0.0 | 2.6 | 0.00 | 0.02 | 0.02 | 88 | 1010.8 |
| 20260507210005 | 52 | 238 | 0.0 | 0.0 | 0.00 | 0.02 | 0.02 | 87 | 1010.9 |
| 20260507205004 | 52 | 238 | 0.0 | 2.6 | 0.00 | 0.02 | 0.02 | 87 | 1010.8 |
| 20260507204005 | 52 | 219 | 1.7 | 2.6 | 0.00 | 0.02 | 0.02 | 85 | 1010.6 |
| 20260507203004 | 54 | 220 | 0.0 | 5.2 | 0.00 | 0.02 | 0.02 | 83 | 1010.4 |
| 20260507202005 | 55 | 245 | 1.7 | 2.6 | 0.00 | 0.02 | 0.02 | 78 | 1010.1 |
| 20260507201004 | 56 | 294 | 0.9 | 4.3 | 0.00 | 0.02 | 0.02 | 74 | 1010.0 |
| 20260507200004 | 55 | 55 | 0.9 | 2.6 | 0.00 | 0.02 | 0.02 | 73 | 1009.7 |
| 20260507195005 | 55 | 55 | 1.7 | 5.2 | 0.00 | 0.02 | 0.02 | 74 | 1009.4 |
| 20260507194004 | 56 | 62 | 2.6 | 10.4 | 0.00 | 0.02 | 0.02 | 73 | 1009.4 |
| 20260507193006 | 56 | 61 | 1.7 | 4.3 | 0.00 | 0.02 | 0.02 | 73 | 1009.3 |
| 20260507192005 | 56 | 7 | 1.7 | 8.7 | 0.00 | 0.02 | 0.02 | 73 | 1009.1 |
| 20260507191005 | 56 | 39 | 5.2 | 8.7 | 0.00 | 0.02 | 0.02 | 72 | 1009.0 |
| 20260507190006 | 56 | 24 | 2.6 | 6.1 | 0.00 | 0.02 | 0.02 | 72 | 1008.9 |
| 20260507185004 | 56 | 28 | 1.7 | 12.2 | 0.00 | 0.02 | 0.02 | 72 | 1008.9 |
| 20260507184004 | 57 | 347 | 4.3 | 13.0 | 0.00 | 0.02 | 0.02 | 72 | 1008.7 |
| 20260507182005 | 57 | 322 | 8.7 | 19.1 | 0.00 | 0.02 | 0.02 | 72 | 1008.4 |
| 20260507181005 | 58 | 328 | 2.6 | 15.6 | 0.00 | 0.02 | 0.02 | 71 | 1008.3 |
| 20260507174004 | 60 | 309 | 3.5 | 12.2 | 0.00 | 0.02 | 0.02 | 68 | 1007.9 |
| 20260507173005 | 60 | 301 | 7.8 | 11.3 | 0.00 | 0.02 | 0.02 | 66 | 1007.8 |
| 20260507172005 | 61 | 269 | 0.9 | 2.6 | 0.00 | 0.02 | 0.02 | 64 | 1007.7 |
| 20260507171005 | 61 | 22 | 0.9 | 4.3 | 0.00 | 0.02 | 0.02 | 59 | 1007.7 |
| 20260507170005 | 61 | 344 | 1.7 | 5.2 | 0.00 | 0.02 | 0.02 | 60 | 1007.6 |
| 20260507164004 | 62 | 94 | 0.9 | 7.0 | 0.00 | 0.02 | 0.02 | 60 | 1007.7 |
| 20260507163004 | 62 | 73 | 1.7 | 5.2 | 0.00 | 0.02 | 0.02 | 62 | 1007.6 |
| 20260507162005 | 62 | 60 | 2.6 | 5.2 | 0.00 | 0.02 | 0.02 | 61 | 1007.8 |
| 20260507161004 | 61 | 99 | 3.5 | 7.8 | 0.00 | 0.02 | 0.02 | 62 | 1007.7 |
| 20260507160004 | 61 | 73 | 5.2 | 10.4 | 0.00 | 0.02 | 0.02 | 64 | 1007.8 |
| 20260507155005 | 61 | 80 | 2.6 | 6.1 | 0.00 | 0.02 | 0.02 | 64 | 1007.9 |
| 20260507154005 | 60 | 152 | 1.7 | 4.3 | 0.00 | 0.02 | 0.02 | 66 | 1008.0 |
| 20260507153004 | 60 | 147 | 5.2 | 15.6 | 0.00 | 0.02 | 0.02 | 69 | 1008.2 |
| 20260507152004 | 58 | 129 | 8.7 | 19.1 | 0.00 | 0.02 | 0.02 | 71 | 1008.4 |
| 20260507151004 | 59 | 143 | 7.8 | 17.4 | 0.00 | 0.02 | 0.02 | 70 | 1008.8 |
| 20260507145004 | 59 | 173 | 9.6 | 14.8 | 0.00 | 0.02 | 0.02 | 68 | 1008.8 |
| 20260507144005 | 61 | 182 | 8.7 | 17.4 | 0.02 | 0.02 | 0.02 | 70 | 1008.7 |
| 20260507142004 | 58 | 96 | 6.1 | 13.0 | 0.02 | 0.02 | 0.02 | 73 | 1008.2 |
| 20260507140005 | 56 | 122 | 8.7 | 15.6 | 0.02 | 0.02 | 0.02 | 79 | 1008.3 |
| 20260507135005 | 55 | 111 | 9.6 | 22.6 | 0.02 | 0.02 | 0.02 | 80 | 1008.4 |
| 20260507134004 | 57 | 133 | 11.3 | 20.9 | 0.00 | 0.00 | 0.00 | 74 | 1008.5 |
| 20260507133005 | 60 | 152 | 10.4 | 17.4 | 0.00 | 0.00 | 0.00 | 69 | 1008.3 |
| 20260507132004 | 61 | 133 | 4.3 | 7.8 | 0.00 | 0.00 | 0.00 | 63 | 1008.3 |
| 20260507131004 | 61 | 128 | 2.6 | 8.7 | 0.00 | 0.00 | 0.00 | 64 | 1008.3 |
| 20260507130005 | 61 | 150 | 9.6 | 13.9 | 0.00 | 0.00 | 0.00 | 66 | 1008.4 |
| 20260507125004 | 63 | 175 | 5.2 | 10.4 | 0.00 | 0.00 | 0.00 | 57 | 1008.4 |
| 20260507124004 | 63 | 220 | 4.3 | 7.0 | 0.00 | 0.00 | 0.00 | 58 | 1008.5 |
| 20260507123006 | 63 | 163 | 2.6 | 12.2 | 0.00 | 0.00 | 0.00 | 58 | 1008.6 |
| 20260507122005 | 63 | 158 | 5.2 | 12.2 | 0.00 | 0.00 | 0.00 | 59 | 1008.7 |
| 20260507121005 | 63 | 197 | 6.1 | 12.2 | 0.00 | 0.00 | 0.00 | 59 | 1008.9 |
| 20260507120005 | 63 | 263 | 4.3 | 7.8 | 0.00 | 0.00 | 0.00 | 57 | 1009.1 |
| 20260507115005 | 63 | 294 | 0.9 | 7.8 | 0.00 | 0.00 | 0.00 | 59 | 1009.1 |
| 20260507114004 | 62 | 262 | 4.3 | 10.4 | 0.00 | 0.00 | 0.00 | 58 | 1009.3 |
| 20260507113005 | 62 | 290 | 5.2 | 8.7 | 0.00 | 0.00 | 0.00 | 58 | 1009.3 |
| 20260507112004 | 62 | 247 | 4.3 | 10.4 | 0.00 | 0.00 | 0.00 | 60 | 1009.5 |
| 20260507111004 | 62 | 290 | 4.3 | 7.0 | 0.00 | 0.00 | 0.00 | 58 | 1009.4 |
| 20260507105005 | 63 | 185 | 3.5 | 8.7 | 0.00 | 0.00 | 0.00 | 61 | 1009.6 |
| 20260507104004 | 62 | 259 | 1.7 | 10.4 | 0.00 | 0.00 | 0.00 | 60 | 1009.7 |
| 20260507103004 | 61 | 148 | 0.9 | 8.7 | 0.00 | 0.00 | 0.00 | 62 | 1009.9 |
| 20260507102006 | 61 | 273 | 0.9 | 2.6 | 0.00 | 0.00 | 0.00 | 64 | 1010.0 |
| 20260507100005 | 60 | 162 | 1.7 | 8.7 | 0.00 | 0.00 | 0.00 | 68 | 1010.2 |
| 20260507094005 | 58 | 351 | 0.9 | 4.3 | 0.00 | 0.00 | 0.00 | 71 | 1010.3 |
| 20260507093005 | 57 | 10 | 1.7 | 2.6 | 0.00 | 0.00 | 0.00 | 72 | 1010.6 |
| 20260507092004 | 56 | 303 | 1.7 | 5.2 | 0.00 | 0.00 | 0.00 | 74 | 1010.7 |
| 20260507090006 | 55 | 237 | 1.7 | 6.1 | 0.00 | 0.00 | 0.00 | 76 | 1010.7 |
| 20260507085005 | 56 | 264 | 2.6 | 6.1 | 0.00 | 0.00 | 0.00 | 75 | 1010.8 |
| 20260507084005 | 55 | 208 | 1.7 | 5.2 | 0.00 | 0.00 | 0.00 | 76 | 1010.9 |
| 20260507083005 | 55 | 261 | 0.9 | 2.6 | 0.00 | 0.00 | 0.00 | 76 | 1010.9 |
| 20260507082004 | 55 | 303 | 0.9 | 2.6 | 0.00 | 0.00 | 0.00 | 75 | 1010.9 |
| 20260507080005 | 54 | 197 | 0.9 | 1.7 | 0.00 | 0.00 | 0.00 | 79 | 1011.0 |
| 20260507075005 | 52 | 196 | 0.0 | 2.6 | 0.00 | 0.00 | 0.00 | 86 | 1011.1 |
| 20260507074004 | 51 | 196 | 1.7 | 2.6 | 0.00 | 0.00 | 0.00 | 88 | 1011.3 |
| 20260507073004 | 50 | 108 | 0.9 | 1.7 | 0.00 | 0.00 | 0.00 | 90 | 1011.3 |
| 20260507072005 | 49 | 107 | 0.0 | 0.9 | 0.00 | 0.00 | 0.00 | 90 | 1011.4 |